This demonstration page uses our WeatherBlox Daily Observations layout. Learn more.

Left ArrowRight Arrow

41.55636, -103.73856

Hourly Observations for February 19, 2018

Temp ( °F °C ) Dew Point ( °F °C ) Humidity (%) Winds ( mph kmh ) Pressure ( in mb ) Visibility ( mi km ) Precip ( " mm )
12:43 am 00:43 Cloudy with Light Snow 10 -12.2 4 -15.6 76 76 N 12 19 30.15 1021 2 3 N/A
12:53 am 00:53 Cloudy with Light Snow 10 -12.2 4 -15.6 76 76 N 7 11 29.89 1012 2 2 N/A
1:33 am 01:33 Cloudy with Light Snow 9 -12.8 5 -15 84 84 N 8 13 30.15 1021 2 3 0.01 0.25
1:40 am 01:40 Cloudy with Light Snow 9 -13 5 -15 85 85 N 8 13 30.15 1021 2 3 N/A
1:53 am 01:53 Cloudy with Light Snow 9 -12.8 4 -15.6 80 80 N 9 15 29.91 1013 3 4 0.01 0.25
2:00 am 02:00 Cloudy with Light Snow 9 -12.8 3 -16.1 77 77 N 9 15 30.18 1022 3 5 N/A
2:17 am 02:17 Cloudy with Light Snow 9 -12.8 4 -15.6 80 80 N 7 11 30.15 1021 3 5 N/A
2:41 am 02:41 Cloudy with Light Snow 9 -12.8 3 -16.1 77 77 NNE 10 17 30.15 1021 4 6 N/A
2:53 am 02:53 Cloudy with Light Snow 8 -13.3 3 -16.1 80 80 NNE 9 15 29.92 1013 5 8 N/A
3:22 am 03:22 Cloudy with Light Snow 8 -13.3 3 -16.1 80 80 N 10 17 30.15 1021 3 4 N/A
3:53 am 03:53 Cloudy with Light Snow 8 -13.3 3 -16.1 80 80 NNE 12 19 29.96 1015 2 3 N/A
4:02 am 04:02 Cloudy with Light Snow 9 -13 3 -16 78 78 N 12 19 30.15 1021 2 2 N/A
4:32 am 04:32 Cloudy with Light Snow 7 -14 1 -17 78 78 N 10 17 30.18 1022 3 4 N/A
4:53 am 04:53 Cloudy with Light Snow 7 -13.9 1 -17.2 76 76 NNE 16 26 29.99 1016 3 4 0.02 0.51
5:53 am 05:53 Cloudy with Light Snow 6 -14.4 N/A 76 76 NE 10 17 30.01 1016 3 5 N/A
6:53 am 06:53 Cloudy with Light Snow 6 -14.4 N/A 76 76 NE 8 13 30.02 1017 7 11 N/A
7:50 am 07:50 Cloudy with Light Snow 7 -14 N/A 72 72 NNE 7 11 30.24 1024 3 4 N/A
7:53 am 07:53 Cloudy with Light Snow 6 -14.4 N/A 76 76 NNE 9 15 30.06 1018 3 4 N/A
8:15 am 08:15 Cloudy with Light Snow 6 -14.4 N/A 76 76 NNE 8 13 30.21 1023 2 2 N/A
8:46 am 08:46 Cloudy with Light Snow 6 -14.4 N/A 76 76 NNE 7 11 30.21 1023 2 3 0.01 0.25
8:53 am 08:53 Cloudy with Light Snow 6 -14.4 N/A 76 76 NE 8 13 30.03 1017 2 3 0.01 0.25
9:09 am 09:09 Cloudy with Light Snow 7 -13.9 N/A 73 73 NE 7 11 30.18 1022 3 4 N/A
9:16 am 09:16 Cloudy with Light Snow 7 -14 N/A 72 72 NE 9 15 30.18 1022 3 5 N/A
9:32 am 09:32 Cloudy with Light Snow 7 -14 N/A 72 72 NE 9 15 30.18 1022 2 3 N/A
9:40 am 09:40 Cloudy with Light Snow 7 -14 N/A 72 72 ENE 9 15 30.18 1022 2 3 N/A
9:53 am 09:53 Cloudy with Light Snow 7 -13.9 N/A 73 73 NE 10 17 30.03 1017 2 3 N/A
10:34 am 10:34 Cloudy with Light Snow 7 -13.9 N/A 73 73 NNE 10 17 30.18 1022 2 2 N/A
10:53 am 10:53 Cloudy with Light Snow 7 -13.9 N/A 73 73 NNE 8 13 30.03 1017 2 3 N/A
11:53 am 11:53 Cloudy with Light Snow 8 -13.3 N/A 69 69 NE 12 19 29.99 1016 3 4 N/A
12:22 pm 12:22 Cloudy with Light Snow 9 -13 N/A 66 66 NE 10 17 30.12 1020 3 5 N/A
12:33 pm 12:33 Cloudy with Light Snow 7 -13.9 N/A 73 73 NE 10 17 30.09 1019 3 5 0.01 0.25
12:53 pm 12:53 Cloudy with Light Snow 7 -13.9 N/A 73 73 NE 12 19 29.97 1015 5 8 0.01 0.25
1:53 pm 13:53 Cloudy with Light Snow 7 -13.9 -1 -18.3 70 70 NE 13 20 29.98 1015 4 6 N/A
2:53 pm 14:53 Cloudy with Light Snow 6 -14.4 -1 -18.3 73 73 NNE 17 28 29.96 1015 3 5 N/A
3:45 pm 15:45 Cloudy with Light Snow 6 -14.4 -2 -18.9 69 69 NE 14 22 30.12 1020 5 8 N/A
3:53 pm 15:53 Cloudy with Light Snow 6 -14.4 -2 -18.9 69 69 NE 13 20 29.97 1015 5 8 N/A
4:53 pm 16:53 Cloudy with Light Snow 5 -15 -2 -18.9 72 72 N 8 13 30.03 1017 5 8 N/A
5:53 pm 17:53 Cloudy with Light Snow 4 -15.6 -3 -19.4 73 73 E 13 20 29.98 1015 5 8 N/A
6:29 pm 18:29 Cloudy with Light Snow 4 -15.6 -3 -19.4 73 73 N 12 19 30.18 1022 3 4 N/A
6:34 pm 18:34 Cloudy with Light Snow 4 -15.6 -2 -18.9 76 76 NNE 12 19 30.21 1023 1 1 N/A
6:45 pm 18:45 Mostly Cloudy with Snow 3 -16 N/A 85 85 N 15 24 30.18 1022 1 1 N/A
6:53 pm 18:53 Mostly Cloudy with Snow 2 -16.7 -2 -18.9 83 83 NNE 12 19 30.04 1017 1 1 0.03 0.76
7:18 pm 19:18 Mostly Cloudy with Light Snow 1 -17 -2 -19 85 85 NNE 12 19 30.24 1024 1 2 N/A
7:53 pm 19:53 Mostly Cloudy with Light Snow 2 -16.7 -3 -19.4 80 80 N 6 9 30.11 1020 1 1 0.04 1.02
8:04 pm 20:04 Mostly Cloudy with Heavy Snow 1 -17 -2 -19 85 85 N 10 17 30.30 1026 0 0 N/A
8:24 pm 20:24 Mostly Cloudy with Freezing Fog 1 -17 -2 -19 85 85 N 9 15 30.27 1025 1 1 N/A
8:51 pm 20:51 Mostly Cloudy with Mist and Fog 1 -17 -2 -19 85 85 NNE 7 11 30.27 1025 1 1 0.09 2.29
8:53 pm 20:53 Mostly Cloudy with Mist and Fog 1 -17.2 -3 -19.4 83 83 N 7 11 30.10 1019 1 1 0.10 2.54
9:00 pm 21:00 Mostly Cloudy with Haze 1 -17 -4 -20 78 78 NNW 7 11 30.30 1026 1 2 N/A
9:37 pm 21:37 Cloudy with Haze 1 -17.2 -4 -20 79 79 NNW 7 11 30.30 1026 2 3 0.01 0.25
9:46 pm 21:46 Cloudy with Haze 1 -17 -6 -21 71 71 N 8 13 30.30 1026 3 5 N/A
9:53 pm 21:53 Cloudy with Haze 1 -17.2 -5 -20.6 75 75 N 6 9 30.10 1019 4 6 0.01 0.25
10:17 pm 22:17 Cloudy with Haze 1 -17.2 -5 -20.6 75 75 N 9 15 30.27 1025 3 4 N/A
10:33 pm 22:33 Cloudy with Haze 1 -17.2 -5 -20.6 75 75 N 9 15 30.27 1025 3 5 N/A
10:53 pm 22:53 Cloudy with Haze N/A -6 -21.1 76 76 N 9 15 30.11 1020 4 6 N/A
11:09 pm 23:09 Cloudy with Haze N/A -6 -21.1 76 76 NNW 7 11 30.36 1028 4 6 N/A
11:19 pm 23:19 Cloudy with Haze N/A -6 -21.1 76 76 N 8 13 30.33 1027 4 6 N/A
11:53 pm 23:53 Cloudy with Haze N/A -7 -21.7 72 72 NW 10 17 30.14 1021 4 6 N/A

Powered by AerisWeather